Regional Weather Roundup
Issued by NWS

Home | Current Version | Previous Version | Text Only | Print | Product List | Glossary Off
Versions: 1 2 3 4 5 6 7 8 9 10 11 12 13 14 15 16 17 18 19 20 21 22 23 24 25 26

803
ASUS45 KCYS 220110
RWRWY

WYOMING REGIONAL WEATHER ROUNDUP
NATIONAL WEATHER SERVICE CHEYENNE WY
700 PM MDT THU MAY 21 2015

NOTE:  "FAIR" INDICATES FEW OR NO CLOUDS BELOW 12,000 FEET
WITH NO SIGNIFICANT WEATHER AND/OR OBSTRUCTIONS TO VISIBILITY.

WYZ001-220200-
YELLOWSTONE NATIONAL PARK

CITY           SKY/WX    TMP DP  RH WIND       PRES   REMARKS
LK YELLOWSTONE   N/A     48  33  56 CALM      30.07F
W YELLOWSTONE  NOT AVBL

$$
WYZ002>013-054>058-071-098>099-220200-
NORTHERN WYOMING

CITY           SKY/WX    TMP DP  RH WIND       PRES   REMARKS
JACKSON        PTSUNNY   59  34  38 E6        29.95
CODY           FAIR      57  43  58 N6        29.98S
GREYBULL       FAIR      69  34  27 SW5       29.92F
WORLAND        FAIR      66  43  43 SE13      29.93S
SHERIDAN       CLOUDY    58  42  55 SE14      30.01F
BUFFALO        CLOUDY    55  42  61 SE14      30.06F
GILLETTE       FAIR      54  41  61 S22       30.08F
HULETT         FAIR      59  41  51 S8        30.09S
NEWCASTLE      CLOUDY    54  37  54 SE14G21   30.13S

$$
WYZ014>020-022>026-101>103-220200-
CENTRAL WYOMING

CITY           SKY/WX    TMP DP  RH WIND       PRES   REMARKS
BIG PINEY      LGT RAIN  47  38  71 S18       30.05R
PINEDALE       CLOUDY    46  37  71 SE16G24   30.05R
DUBOIS         FAIR      50  37  62 SE16G22   30.01R
LANDER         PTSUNNY   55  44  66 SW8       29.98R
RIVERTON       FAIR      59  41  51 CALM      29.99S
CASPER         FAIR      56  42  59 E13       30.03S
DOUGLAS        CLOUDY    52  42  69 SE18      30.07F

$$
WYZ021-027>030-104>119-220200-
SOUTHERN WYOMING

CITY           SKY/WX    TMP DP  RH WIND       PRES   REMARKS
EVANSTON       FAIR      45  40  82 N5        30.02S
KEMMERER       RAIN      43  41  93 W8        30.05F
FORT BRIDGER   MOCLDY    48  46  93 NE5       30.06R
ROCK SPRINGS   PTSUNNY   50  40  68 NE13      30.00R
DIXON          FAIR      62  34  35 E6        29.97F
RAWLINS        FAIR      51  39  63 E15       30.04F
SARATOGA       MOCLDY    54  37  54 MISG      30.04S
LARAMIE        FAIR      49  45  86 S14       30.08F
CHEYENNE       CLOUDY    50  42  74 SE13      30.11F
TORRINGTON     FAIR      53  43  68 SE12      30.09F
PINE BLUFFS    FAIR      52  43  71 SE18      30.11F

$$



USA.gov is the U.S. government's official web portal to all federal, state and local government web resources and services.